CZ-2C R/B

Last updated on Thu Oct 16 2025 00:02:15 GMT+0000 (Coordinated Universal Time)

1 52794U 22058K 25288.52488278 .00025456 00000+0 51852-3 0 9998 2 52794 50.1924 339.5364 0052437 315.4474 44.2282 15.44551182187624
UTC large
Height (km)
Speed (km/s)
/
Latitude / Longitude
Inclination (degrees)
Orbital Period (minutes)
Azimuth
Elevation
Range (km)
Doppler Factor

Next 0 passes for location: London (51.5072 / 0.1276)

Sorry there are no passes over London.